Location: Unspecified
(0.0000°N, 0.0000°E)
Time: 15:51:51
(UTC+00:00)

BEESAT - Pass Details

Date: 11 December 2017
Orbit: 700 x 710 km, 98.6° (Epoch: 22 July)

Event Time Altitude Azimuth Distance (km) Brightness Sun altitude
Rises 02:59:37 0° 165° (SSE) 3,097 ? -39.2°
Reaches altitude 10° 03:01:53 10° 163° (SSE) 2,174 ? -38.7°
Enters shadow 03:02:11 12° 163° (SSE) 2,058 ? -38.7°
